Theta_e
333 333 334 333 333 332 332 331 332 335 336 335 336 336 336 334 330 328 329 329 328 326 325 324 324 323 324 325 326 328 328 328 328 327 328 328 328 328 327 328 329 328 329 328 327 328 329 330 330 330 330 331 331 331 332 332 330 330 330 331 332 331 330 329 330 331 331 331 330 329 329 328 327 327 325 324 324 326 328 328 327 328 328 328 329
332 333 333 333 333 332 331 333 333 335 336 335 335 336 336 334 331 328 326 326 325 325 325 325 325 324 323 323 324 325 325 324 322 323 324 324 325 326 326 326 325 324 326 327 326 327 328 330 330 330 331 330 331 331 331 331 330 330 331 331 331 331 331 330 330 330 330 329 329 329 330 328 327 327 327 326 324 324 325 325 326 327 327 327 327
332 334 333 331 332 332 330 333 335 334 336 335 334 336 336 334 331 326 323 325 326 326 326 325 325 325 323 322 323 323 322 320 318 320 322 321 322 324 324 324 322 321 323 325 325 326 328 328 327 328 329 329 330 330 330 331 330 330 331 330 330 330 330 329 330 329 329 328 329 331 333 333 332 329 328 328 326 324 323 324 324 325 327 327 327
333 334 333 330 330 331 329 332 336 335 336 336 335 336 336 334 331 325 324 327 327 326 326 324 324 324 323 322 321 320 320 320 321 322 323 323 323 323 324 323 322 321 321 323 324 325 326 326 326 327 327 328 329 328 329 329 329 330 330 330 330 329 329 329 329 329 328 328 330 331 331 333 337 331 328 329 328 326 326 325 325 325 326 326 325
331 332 333 330 329 331 329 331 335 336 336 336 336 337 337 336 331 326 326 327 326 325 324 323 324 323 321 320 319 319 320 320 322 322 323 323 323 323 323 322 322 322 321 321 323 323 324 325 325 325 326 326 327 327 328 327 327 328 328 329 329 329 328 328 329 329 329 329 330 330 329 333 336 330 329 331 329 327 327 325 326 327 328 327 325
330 331 333 330 329 331 330 331 334 335 337 337 338 338 338 337 332 326 327 327 325 324 323 323 323 322 321 318 319 321 321 320 321 322 323 323 323 322 322 321 321 321 321 321 321 322 323 324 324 323 323 324 325 326 326 326 325 326 326 328 328 327 327 328 328 329 330 329 328 329 329 331 332 330 332 334 329 328 326 324 326 327 328 328 327
331 331 331 331 330 330 330 331 333 334 336 337 338 339 339 337 331 327 327 326 324 324 323 322 322 322 320 316 318 321 319 320 321 322 322 322 322 322 321 321 320 320 321 321 321 321 320 321 322 322 322 322 324 324 324 324 325 325 325 326 327 326 327 328 328 328 328 328 328 328 328 328 329 329 331 334 333 331 328 326 327 327 326 325 326
332 332 332 331 329 329 330 331 331 333 334 335 337 338 338 337 331 327 328 326 324 325 323 322 322 321 317 315 319 320 319 321 322 321 321 321 321 322 321 321 321 321 321 320 321 320 317 317 320 321 321 322 322 323 322 323 323 324 325 325 326 326 326 326 327 327 326 326 327 327 328 328 327 327 327 329 331 332 330 328 327 327 327 325 325
332 333 334 332 329 328 329 331 331 331 332 333 334 336 336 336 332 328 327 326 325 325 324 322 321 318 315 317 321 322 320 321 321 321 321 321 322 323 322 321 319 318 318 318 318 319 315 314 317 317 318 318 319 320 320 320 321 322 323 324 324 325 325 325 325 324 325 325 325 327 327 328 327 327 327 326 327 330 331 329 325 323 323 324 325
331 331 333 330 328 329 329 330 331 331 331 331 331 333 333 333 331 328 328 327 326 325 324 321 317 314 316 320 322 321 320 320 320 322 322 323 322 322 320 318 316 315 315 315 315 316 314 314 315 314 314 313 314 315 314 317 319 319 320 321 322 321 322 323 320 319 320 320 322 325 326 327 326 324 323 323 323 324 327 325 319 316 316 318 322
328 329 330 327 328 330 329 330 330 330 330 329 329 330 330 329 328 328 327 327 327 325 324 320 315 315 318 321 322 320 320 319 321 322 322 322 320 319 319 316 315 314 314 314 314 314 313 314 315 315 314 315 315 315 314 315 317 317 316 317 318 319 319 318 317 316 316 316 317 319 320 319 319 317 316 317 317 317 321 320 315 313 314 314 315
328 331 333 331 330 329 328 329 329 329 329 328 328 329 329 329 329 329 327 326 326 325 324 319 315 317 319 322 322 320 320 319 320 321 321 321 319 319 319 317 315 315 314 314 313 313 313 313 314 314 315 315 316 317 316 317 317 315 313 310 310 314 317 316 315 315 315 315 315 315 313 313 313 314 314 314 315 315 317 317 313 313 314 313 312
329 333 336 338 336 330 326 327 328 328 328 327 327 328 328 328 329 328 327 326 325 325 323 319 316 318 320 321 321 319 319 319 319 321 321 320 319 319 319 317 315 315 314 312 312 314 314 313 314 315 314 315 314 314 314 314 313 311 309 306 305 308 311 312 312 313 313 313 314 313 312 312 312 312 313 313 314 314 314 313 313 313 314 314 313
330 331 335 339 338 331 327 327 327 327 328 327 327 327 328 328 328 328 327 327 326 324 322 319 317 319 321 322 320 319 319 318 319 321 320 319 320 319 318 317 315 315 314 312 313 315 315 313 312 312 314 314 315 314 313 311 310 308 306 304 304 304 304 305 306 309 312 312 312 311 310 311 311 311 312 312 313 313 313 313 313 313 314 313 312
330 332 333 334 332 330 328 329 329 327 327 328 327 328 327 327 328 328 327 328 327 324 322 320 317 319 322 321 319 319 319 318 319 320 320 319 320 319 318 317 315 315 315 313 315 316 315 313 309 309 311 314 316 316 314 313 310 307 305 304 304 304 303 303 303 307 311 312 311 310 308 308 310 311 311 311 311 312 312 313 313 315 316 315 313
333 333 333 332 328 327 327 329 332 331 329 329 329 329 327 325 327 327 326 327 326 324 324 322 317 319 322 321 319 320 319 318 319 320 319 320 320 319 318 317 316 316 315 314 316 317 315 313 309 308 308 311 314 315 315 313 309 306 307 307 308 308 306 304 305 307 311 312 312 312 309 307 309 311 311 309 309 311 312 313 313 313 316 317 317
332 332 333 332 328 326 326 327 330 331 331 331 330 328 325 324 326 326 324 325 326 324 325 324 319 319 322 322 319 319 320 319 319 320 319 320 320 319 319 318 317 317 316 314 316 318 315 311 310 309 307 309 312 313 313 312 309 307 309 312 313 313 310 307 306 307 309 311 312 312 312 309 307 309 310 309 309 310 311 311 311 311 312 315 317
330 330 331 329 325 324 326 325 327 328 329 330 329 328 325 324 324 324 322 325 327 325 324 325 322 319 322 323 320 319 321 320 319 320 320 320 320 320 320 319 318 318 317 314 314 317 316 311 310 309 308 309 313 314 312 312 311 310 311 313 313 313 312 311 310 308 307 309 310 311 312 310 308 308 310 311 310 310 310 310 310 309 310 311 313
329 330 330 328 323 323 325 325 326 327 328 329 329 329 328 326 326 325 324 326 327 325 323 325 325 321 321 323 320 320 321 321 321 320 321 320 320 320 320 319 319 318 318 316 314 316 316 313 312 311 309 309 314 315 313 313 314 312 311 312 310 309 311 311 311 309 306 308 309 310 311 309 307 308 310 311 311 310 309 309 309 309 309 310 309
329 328 330 328 324 323 324 324 324 325 326 327 327 328 329 329 328 326 326 326 325 324 323 324 325 324 324 324 322 321 320 321 321 320 320 321 320 319 319 319 319 319 319 318 315 315 315 314 314 314 312 311 313 315 313 313 315 313 312 313 309 310 313 310 309 309 308 308 310 310 310 308 306 307 309 310 309 309 309 309 310 310 310 310 310
330 328 329 328 323 322 324 324 324 324 324 325 325 326 327 328 328 327 326 325 325 324 323 324 325 325 325 323 322 322 322 322 322 321 320 321 321 319 318 319 319 319 319 319 318 316 316 315 314 315 315 313 312 314 313 313 314 314 313 313 311 313 315 312 309 311 310 309 310 310 311 309 308 305 305 307 308 308 308 309 309 310 309 309 309
329 328 329 327 322 322 323 323 323 323 322 323 324 325 325 326 327 326 325 325 325 324 323 324 325 325 323 322 322 322 322 322 323 322 320 321 321 320 318 319 319 319 319 319 319 319 317 316 315 315 316 316 314 314 313 313 313 314 314 313 312 313 315 313 311 312 311 309 309 309 310 310 310 306 304 307 308 307 307 308 308 308 308 307 307
328 328 329 324 321 323 323 323 323 322 321 322 323 323 324 325 325 325 325 325 325 324 324 324 324 323 322 322 322 322 322 322 323 323 322 322 322 321 320 320 320 320 320 320 320 320 319 318 317 316 317 317 316 315 314 313 313 314 314 313 313 313 313 313 313 312 311 310 309 309 309 310 310 308 306 307 308 308 308 308 308 307 307 306 306
326 327 326 321 320 322 322 322 322 321 320 321 322 322 323 324 325 325 324 324 324 323 323 323 323 323 322 322 322 321 322 323 323 322 322 322 322 321 321 321 321 321 321 321 320 320 320 319 318 318 318 318 318 317 316 315 313 314 315 314 314 313 312 312 313 312 311 311 311 310 309 310 310 309 307 307 308 308 308 308 307 306 306 306 306
324 324 324 323 322 321 320 320 321 320 319 319 320 320 321 323 324 324 324 323 323 322 322 322 322 322 322 322 322 321 322 323 322 320 321 323 322 321 321 321 321 321 321 322 322 321 320 320 319 319 318 319 319 318 318 316 315 314 315 315 315 314 312 312 313 312 310 311 311 311 310 310 310 309 308 307 308 309 308 307 306 306 305 305 305
322 323 323 323 321 318 318 320 319 318 317 317 317 317 318 319 321 323 324 323 323 322 321 321 322 322 323 322 322 322 321 321 320 319 321 323 323 321 321 322 321 321 321 321 321 321 320 321 320 319 319 319 319 319 319 318 317 316 315 315 315 315 313 312 312 312 311 311 311 310 310 309 309 309 308 307 308 308 307 306 305 305 304 303 302
323 323 322 322 321 317 315 317 318 317 315 314 314 315 316 316 317 320 322 323 323 323 322 322 321 322 322 322 321 320 319 320 322 322 322 324 323 321 320 320 321 321 320 320 320 320 320 320 320 320 319 319 319 319 319 318 318 317 316 315 315 316 314 312 312 312 312 311 310 309 309 308 308 308 307 307 307 306 306 305 303 301 300 299 299
322 323 323 322 323 320 315 314 316 315 314 313 313 313 313 314 314 315 317 318 319 321 322 322 322 322 322 322 321 321 321 322 324 324 323 323 323 321 321 320 321 321 320 320 319 319 319 319 319 319 319 319 319 319 319 318 318 317 316 316 315 315 314 313 312 312 312 311 310 310 309 308 307 307 306 306 305 306 305 302 299 297 295 295 297
320 322 323 322 323 322 316 312 313 313 313 313 312 312 313 313 314 314 314 314 315 316 318 320 321 322 322 323 324 324 324 324 324 324 323 323 322 322 322 321 320 319 319 319 319 318 319 319 319 319 319 319 319 318 319 319 318 317 317 316 316 315 315 313 313 312 312 311 310 309 308 307 306 306 305 305 305 305 303 300 297 295 293 293 295
320 321 321 321 321 319 314 312 313 312 313 313 313 313 313 313 313 313 313 313 313 313 315 316 317 318 319 320 319 319 320 320 320 320 320 320 320 320 320 320 320 320 320 320 320 319 319 319 320 320 320 320 319 319 319 319 319 318 317 316 316 315 315 314 313 312 312 311 309 308 307 306 305 304 304 304 304 303 302 300 298 297 295 296 296
320 320 320 320 320 317 313 312 312 311 312 312 312 312 312 311 311 311 311 311 311 311 312 313 312 312 313 314 315 315 316 316 316 316 317 317 318 319 318 320 321 322 322 322 322 322 321 321 321 321 321 321 320 320 320 320 319 318 317 317 316 316 315 314 313 313 311 310 309 307 306 305 304 304 304 303 302 302 301 300 299 298 298 298 298
318 319 319 319 320 317 313 311 311 311 311 310 311 311 311 310 309 310 310 309 309 309 309 309 309 308 309 310 312 313 313 314 314 315 315 316 317 318 319 320 322 322 322 322 322 322 322 321 321 322 322 321 321 320 320 320 320 318 318 317 316 315 315 314 313 312 311 310 308 307 306 305 304 304 303 303 303 302 302 301 300 299 299 299 299
317 318 317 318 317 315 311 311 311 310 309 309 310 310 310 309 308 308 309 308 308 309 309 308 308 307 307 307 308 308 309 309 310 310 310 311 312 314 315 316 318 319 320 321 321 321 321 321 321 322 322 322 321 321 321 320 320 318 318 318 316 315 315 314 313 312 311 309 308 306 305 304 304 304 303 303 303 302 302 301 300 300 300 299 299
316 316 315 314 312 310 309 309 309 309 308 308 308 309 309 309 308 308 308 308 308 308 308 308 308 307 308 307 307 308 308 308 308 308 308 308 309 309 310 311 313 316 317 318 318 318 319 319 319 320 321 322 322 321 321 321 319 318 318 317 316 315 314 313 311 310 309 307 306 305 305 304 304 304 303 303 303 302 302 301 301 301 300 300 299
314 314 313 310 309 309 309 309 309 309 308 307 308 309 309 308 308 308 308 308 307 307 308 308 308 307 307 307 308 308 308 308 308 308 308 308 308 308 309 309 311 313 314 314 315 316 317 317 317 318 319 320 321 320 320 320 318 317 317 317 315 314 312 310 308 308 307 306 305 304 304 303 303 303 302 302 302 301 301 301 301 301 300 300 299
312 312 311 309 308 309 309 308 309 308 307 307 307 308 308 308 308 308 308 308 307 307 307 307 307 307 307 307 308 308 308 308 308 307 307 307 307 307 308 308 309 310 312 313 314 314 315 317 318 318 317 318 319 318 318 318 317 316 315 314 313 312 310 309 307 306 305 305 304 304 303 303 303 302 302 301 301 301 301 301 300 300 299 299 298
309 309 309 308 307 308 309 309 308 307 307 306 306 306 307 307 308 308 308 308 307 307 307 306 307 307 306 307 308 308 308 308 307 307 307 307 307 307 307 308 308 308 309 311 313 313 314 314 316 318 318 318 317 318 318 316 314 313 313 311 310 309 308 307 305 304 304 304 304 304 303 303 302 302 302 302 302 301 301 300 300 299 298 298 298
307 307 307 306 306 307 307 308 307 306 306 305 305 306 306 307 307 307 307 308 307 307 307 306 306 307 306 307 308 308 308 308 307 307 307 307 307 307 306 306 307 308 308 309 311 312 313 313 314 316 317 318 317 317 317 314 312 311 311 308 307 306 306 305 305 304 303 303 303 303 303 302 302 302 302 301 301 301 299 298 298 297 297 297 297
306 306 305 305 306 306 306 306 306 305 305 305 305 306 306 306 306 307 307 307 307 307 307 306 307 306 306 306 306 307 307 307 307 307 307 307 307 307 307 307 307 307 307 307 309 310 311 312 312 313 315 317 318 317 314 312 310 309 309 307 306 305 304 304 303 303 303 303 302 302 302 302 302 301 301 300 299 298 297 297 296 295 295 295 295
304 304 304 304 304 304 304 304 304 304 304 305 305 305 306 305 305 305 306 306 306 306 306 306 306 307 306 306 305 305 306 306 307 307 306 307 308 308 308 307 306 306 307 307 308 310 311 312 312 312 314 316 317 315 311 309 308 307 307 306 304 303 302 301 301 301 300 299 299 299 299 299 299 299 298 297 296 296 296 295 295 294 293 293 293
303 303 303 303 303 303 303 303 304 304 303 304 304 304 304 305 305 305 305 305 305 306 306 306 306 306 306 306 306 305 305 305 306 307 307 307 308 308 309 308 308 308 307 307 308 310 312 312 312 313 313 314 315 313 309 306 306 306 305 304 302 301 300 300 300 299 298 297 296 297 296 297 297 296 296 296 295 295 294 294 293 293 292 292 291
302 302 303 303 303 303 303 303 303 303 303 303 303 303 304 304 304 305 305 305 305 305 306 306 306 306 306 306 306 306 305 305 305 306 306 307 307 308 309 309 308 307 307 308 310 310 310 310 311 312 313 313 312 310 307 304 304 305 304 302 301 301 300 299 300 299 297 296 296 296 296 296 296 296 296 295 294 294 293 293 292 292 292 291 291
301 301 301 302 302 302 303 302 303 303 303 303 303 303 303 303 303 303 303 304 304 305 305 305 305 306 305 305 305 305 305 305 305 305 306 306 307 307 307 308 308 308 308 309 310 310 309 308 307 308 310 309 307 305 304 303 302 302 302 300 299 298 298 298 298 297 295 295 296 296 296 296 296 296 295 294 293 293 293 292 292 292 291 292 291
299 300 300 301 301 301 301 302 302 302 303 302 303 302 303 302 302 302 302 302 303 304 305 305 305 305 305 305 305 305 305 305 305 305 305 305 306 306 306 307 308 309 309 310 310 308 307 305 304 303 303 303 302 301 300 300 300 300 299 298 296 295 295 294 294 293 293 294 295 296 296 296 296 295 294 293 293 293 292 292 292 292 292 292 291
299 299 299 299 300 300 300 301 301 301 302 302 302 302 302 302 302 302 303 302 303 303 304 304 304 304 304 305 305 304 304 304 304 304 304 304 305 305 306 307 309 309 310 310 308 306 305 303 302 300 299 298 298 297 297 297 298 297 296 295 294 293 293 293 293 294 294 294 295 296 296 295 294 294 293 293 293 293 293 292 292 292 291 291 291
298 298 299 299 299 299 299 300 300 301 301 302 302 302 302 302 302 302 302 302 302 303 303 303 304 304 304 304 305 304 304 304 304 304 304 304 305 305 306 308 309 310 311 311 307 305 304 302 299 298 297 296 295 295 295 296 295 295 294 294 295 295 295 295 295 295 295 296 296 295 294 294 294 294 293 293 293 293 292 292 292 291 291 290 290
298 299 299 299 299 299 299 299 299 300 301 301 301 301 302 302 302 302 302 302 302 303 303 303 303 303 304 304 304 304 305 305 304 305 305 305 305 306 306 308 310 310 311 310 307 304 302 300 298 297 296 295 295 295 295 294 294 295 295 296 296 296 296 296 296 295 295 294 294 294 293 293 293 293 293 292 292 292 291 291 291 290 290 290 290
299 299 299 299 299 299 299 300 300 300 300 300 301 301 301 301 301 302 302 302 302 302 302 302 302 302 303 303 303 304 304 305 305 305 305 306 308 308 309 309 310 310 309 308 307 305 302 300 298 296 295 295 294 293 293 294 295 296 296 296 296 296 295 295 294 293 293 293 293 293 293 293 293 292 292 292 291 291 291 291 290 290 290 290 290
299 299 299 299 299 299 300 300 300 300 300 300 300 301 301 301 301 301 301 301 301 302 301 301 301 301 302 302 303 303 304 304 304 305 305 307 309 310 310 310 310 310 309 308 307 305 303 301 299 296 295 294 293 293 294 295 296 296 296 295 295 293 292 292 292 292 292 293 293 293 292 292 292 292 292 291 291 291 291 291 290 290 290 290 290
299 299 299 299 299 299 299 299 300 300 300 300 300 300 300 300 301 301 301 301 301 301 301 301 301 301 301 302 303 304 303 303 304 304 305 306 307 309 309 309 309 309 308 308 307 304 302 301 298 296 295 295 295 295 294 294 293 293 293 292 291 291 291 292 292 293 293 293 292 292 292 292 291 291 291 291 291 291 290 290 290 290 290 290 290
298 298 299 299 299 299 299 299 299 299 299 300 300 300 300 300 300 300 300 301 301 301 301 301 301 301 301 302 303 303 303 303 304 304 305 305 305 306 307 308 308 307 307 306 305 303 301 300 299 297 295 295 295 294 292 291 291 291 290 291 291 291 292 292 292 293 293 292 292 292 291 291 291 291 291 290 290 290 290 290 290 290 289 289 289
Wind_Speed
12 16 19 20 22 21 22 29 31 29 26 25 25 24 23 23 23 24 23 21 22 22 21 20 20 19 19 20 22 23 22 21 19 17 15 12 10 9 8 7 6 5 5 5 4 4 4 3 4 6 8 9 9 11 13 12 11 11 12 11 9 9 10 10 10 9 7 5 3 3 3 3 3 3 3 4 5 6 6 5 4 4 5 4 2
11 14 17 21 21 21 24 28 30 30 28 26 25 24 23 21 22 23 23 22 23 22 21 20 21 20 20 20 21 21 21 20 18 18 17 16 14 11 8 5 4 3 4 5 4 2 4 5 5 4 5 6 8 8 10 11 11 10 11 12 10 9 9 8 8 8 5 3 2 1 0 1 1 1 1 2 5 5 6 6 5 4 5 7 7
11 11 15 20 21 21 25 27 28 29 29 27 25 24 23 21 21 22 23 23 21 20 20 20 20 19 20 22 23 21 19 18 17 17 17 16 16 14 11 9 6 4 5 6 7 6 6 7 7 6 5 6 8 9 8 8 9 10 10 11 10 8 7 7 7 6 5 5 3 1 0 1 1 1 4 2 2 4 5 6 6 5 5 5 5
11 11 12 16 19 19 23 26 27 28 28 27 26 24 23 22 21 22 22 21 18 19 21 20 19 21 23 24 25 23 22 20 19 19 18 17 16 14 12 11 10 8 8 8 9 10 9 8 7 6 7 6 7 9 7 6 6 9 10 9 10 9 7 6 6 6 6 5 3 1 1 2 1 1 4 4 2 0 1 2 3 3 3 3 3
12 12 11 12 14 15 20 24 25 27 27 26 27 25 24 24 23 22 22 19 18 20 22 22 22 25 28 27 25 25 24 23 22 20 19 19 17 15 13 12 13 13 12 12 10 10 9 8 9 9 9 7 7 9 10 9 8 6 5 7 8 8 8 6 5 6 6 5 4 3 2 1 1 1 3 3 2 1 0 0 1 1 1 1 2
11 12 12 10 11 14 18 22 23 25 27 27 27 26 25 25 24 23 21 19 21 22 22 23 25 28 28 28 27 26 24 22 23 23 21 20 18 17 15 14 14 14 13 13 12 12 12 11 11 13 13 13 12 13 13 12 11 11 8 6 6 7 8 9 7 6 7 7 5 5 3 2 2 1 1 1 2 2 1 1 1 1 1 1 1
10 12 12 11 12 14 16 20 23 25 27 28 28 26 26 26 25 23 20 20 22 22 22 22 24 25 24 25 26 26 25 23 23 24 22 21 20 18 17 16 14 13 12 13 14 13 13 12 13 15 16 18 18 18 15 13 12 12 11 10 8 7 9 10 8 6 5 6 6 5 3 2 1 0 1 1 1 1 1 1 2 4 5 5 3
10 9 10 11 13 15 17 22 25 26 27 28 28 28 27 27 27 24 19 19 22 22 22 23 23 23 22 23 25 25 25 24 24 23 21 21 21 20 18 17 14 13 11 11 13 13 14 15 16 17 16 16 18 18 15 14 14 13 12 12 11 10 9 10 11 8 7 6 5 5 3 1 0 0 1 2 2 1 1 1 1 3 5 5 4
9 9 8 9 13 18 21 25 27 27 26 28 29 29 28 27 28 26 20 18 21 22 22 23 22 22 23 24 25 24 24 24 24 22 21 21 22 20 18 16 14 14 12 11 12 12 13 17 17 15 13 12 12 13 13 13 13 13 13 13 13 12 11 12 13 10 8 8 6 6 4 2 2 2 1 2 2 2 1 2 2 3 5 6 4
10 11 10 11 16 21 23 25 26 25 25 27 28 28 28 27 26 26 22 18 21 23 23 23 23 24 25 26 27 27 25 24 23 22 21 22 22 20 18 17 16 15 14 14 13 12 13 15 16 15 13 12 12 13 12 12 12 12 12 12 13 14 13 13 14 13 12 11 8 7 6 5 3 2 2 1 0 1 0 2 4 7 6 5 4
6 6 7 10 15 19 21 23 24 23 23 25 26 27 28 27 26 25 23 20 21 25 26 25 25 26 26 27 28 29 27 25 25 23 22 22 21 19 18 18 17 16 15 14 14 13 13 15 16 15 14 14 14 15 14 13 13 12 11 11 12 13 14 14 14 15 15 15 13 11 10 9 7 6 7 7 6 4 2 2 6 10 8 7 7
7 6 5 5 8 13 17 20 22 21 22 24 25 26 24 23 24 22 21 23 26 28 28 27 28 26 25 27 28 28 27 27 27 25 23 22 21 20 20 19 17 16 15 14 15 15 15 15 16 15 14 14 14 13 13 13 12 12 12 11 11 11 11 11 12 13 13 15 15 13 11 10 9 9 8 9 7 5 4 3 7 9 7 9 12
8 6 6 5 4 5 11 16 19 19 20 23 24 24 21 20 24 25 26 30 33 33 31 29 29 26 24 27 27 26 27 27 27 26 24 23 22 22 20 18 18 17 15 15 16 15 14 14 15 14 14 14 13 12 12 12 12 13 14 13 13 12 10 10 11 11 12 13 13 11 10 9 9 8 6 7 6 6 7 6 6 8 5 9 12
7 6 6 5 4 2 2 9 18 23 22 23 22 21 22 23 26 28 29 32 36 36 33 32 30 25 22 25 25 25 27 25 26 26 23 23 23 21 19 17 17 16 15 15 16 15 12 11 13 14 15 15 13 11 11 12 13 13 14 14 14 13 12 12 11 11 12 11 10 9 7 7 7 6 4 4 4 5 7 6 5 6 4 7 9
7 6 6 4 5 4 5 5 11 25 29 24 19 20 24 24 25 31 34 32 34 34 31 31 31 25 21 24 25 25 26 24 24 24 23 23 22 19 18 15 14 14 13 14 14 13 11 10 11 13 14 15 14 12 10 10 10 12 13 14 14 13 12 13 12 12 13 11 9 8 7 7 6 5 4 3 3 3 5 5 5 4 3 5 6
6 6 4 1 3 5 6 10 5 15 23 19 15 16 20 21 25 34 31 22 22 23 20 23 29 24 18 23 25 24 24 23 22 23 22 22 22 19 18 15 14 14 12 13 13 11 10 9 10 11 12 13 14 13 11 8 9 11 12 12 12 10 10 12 12 12 12 11 9 7 7 7 6 5 5 5 6 5 4 5 7 7 4 3 4
6 5 4 1 4 8 9 11 13 10 10 13 15 19 23 28 35 31 17 11 17 20 16 16 23 22 16 20 25 24 23 23 22 22 20 20 20 18 18 17 15 14 12 13 13 11 8 8 9 9 10 12 13 12 10 8 8 10 11 11 10 8 8 9 10 10 10 10 9 6 5 6 6 6 7 8 9 8 6 6 7 8 6 4 2
5 5 5 5 7 10 11 11 12 10 6 8 14 22 29 37 41 30 14 12 20 23 21 17 19 20 15 16 22 23 21 22 21 20 19 19 19 17 18 18 16 15 13 13 13 11 9 8 9 9 9 11 11 9 9 8 7 8 9 9 9 8 7 7 6 6 7 8 8 7 4 4 5 6 6 6 8 8 7 5 4 5 5 5 3
4 4 5 5 8 11 13 13 13 12 8 7 9 15 21 28 33 31 22 16 19 24 23 18 16 19 17 16 20 21 19 19 20 20 18 19 18 17 18 19 17 16 14 13 13 12 10 9 9 9 9 11 11 9 9 9 8 7 8 9 8 9 8 7 6 4 5 7 8 7 4 3 4 4 3 4 4 4 5 4 3 4 3 4 4
4 5 5 4 7 11 13 15 17 17 14 10 8 8 12 19 25 28 25 19 21 26 25 21 18 17 14 11 12 16 16 16 18 20 18 18 19 17 17 18 17 16 14 12 12 12 11 11 10 10 9 10 11 10 10 10 10 9 9 9 8 8 8 6 6 5 4 5 5 4 2 2 2 3 4 5 2 2 3 5 5 3 3 3 6
5 5 5 4 6 10 12 15 17 18 18 16 15 15 12 18 24 27 27 23 23 25 24 22 18 17 15 9 3 1 3 5 11 21 21 18 18 18 17 16 16 16 15 13 13 12 11 11 11 11 10 10 11 12 11 12 11 11 11 11 9 9 9 7 5 6 5 4 3 2 1 2 1 2 2 4 1 1 2 4 4 3 3 4 5
6 5 5 4 6 10 13 15 16 17 18 19 19 23 22 19 20 23 26 26 24 24 24 20 16 17 20 17 7 2 4 4 4 14 20 17 18 18 17 16 16 16 16 15 15 14 13 12 12 12 12 11 11 12 13 13 13 12 13 12 11 12 12 10 8 8 7 5 4 4 3 3 3 3 1 2 1 2 2 4 4 3 4 5 5
6 5 4 5 8 11 13 14 14 15 17 18 20 23 26 24 20 19 20 21 20 20 18 15 14 16 17 16 15 12 12 9 5 10 15 15 17 17 15 15 16 18 18 16 15 15 14 14 13 14 14 13 12 13 13 14 14 14 14 14 13 13 14 13 12 11 9 8 7 5 4 4 5 4 2 1 2 3 2 2 3 2 3 4 5
6 5 5 7 10 10 10 10 11 13 14 15 17 20 23 25 23 20 18 17 17 16 13 11 15 18 16 14 15 16 15 11 6 6 9 11 14 15 15 14 15 17 18 17 17 17 16 16 15 15 16 15 15 15 15 16 16 16 16 16 15 15 14 14 15 13 11 11 10 7 6 6 6 5 2 1 2 3 3 3 3 4 4 5 6
5 5 5 6 7 7 7 8 9 11 13 14 14 15 18 22 22 20 18 16 16 15 12 11 14 16 16 16 18 19 19 16 11 11 12 12 14 16 17 16 15 16 16 16 17 17 17 17 18 18 18 19 19 19 19 18 18 18 19 18 18 18 16 15 15 14 12 12 12 9 8 8 7 7 5 3 4 5 5 5 5 6 6 6 8
5 4 5 5 6 7 8 9 9 10 12 13 13 14 16 18 18 17 16 15 14 13 12 12 13 14 15 16 17 18 18 19 21 22 21 18 17 16 17 18 18 18 18 17 16 16 16 17 18 19 20 19 19 19 20 21 20 21 21 21 21 21 18 17 16 15 13 12 12 11 9 9 8 7 7 6 7 7 7 7 7 7 7 8 9
4 4 5 5 5 6 8 11 11 10 11 13 13 14 15 16 16 15 15 14 12 11 10 10 11 12 12 13 14 14 14 16 19 21 21 19 18 17 17 17 19 20 20 20 18 16 15 14 15 17 18 18 17 17 20 23 24 24 24 24 24 23 20 19 18 16 14 14 13 11 9 9 9 9 8 9 9 9 8 7 8 9 10 10 10
4 5 6 6 6 5 5 9 12 12 12 12 11 10 12 13 13 12 13 13 13 11 10 10 10 10 10 10 11 12 13 14 15 16 17 18 19 18 18 18 19 20 21 21 20 19 18 17 17 18 19 21 20 19 22 25 26 27 27 27 26 24 22 21 20 17 16 15 14 12 10 10 10 11 11 10 10 9 8 7 9 11 12 11 10
5 5 6 6 5 6 7 8 10 13 14 13 12 11 11 11 10 9 10 11 11 11 11 10 10 11 11 11 11 12 11 11 12 11 12 13 15 16 16 16 17 18 19 19 19 19 18 19 19 20 21 22 22 21 22 24 25 27 28 27 26 25 23 22 20 18 16 15 14 12 12 11 11 11 11 11 11 10 9 10 12 11 10 10 9
7 6 6 6 5 4 6 8 10 11 12 13 13 13 13 12 10 8 8 9 10 11 12 12 11 11 12 12 13 13 11 10 10 9 8 8 9 11 12 14 15 15 15 15 15 16 18 19 19 20 20 21 22 23 23 23 24 26 26 26 26 26 24 23 21 19 18 16 14 14 13 12 12 12 12 12 11 12 12 13 11 10 9 8 7
8 9 8 7 6 5 6 9 10 10 10 11 11 13 13 11 9 8 7 7 8 9 11 13 12 11 12 13 13 12 11 10 10 10 9 9 9 10 11 12 13 13 12 12 13 14 15 17 19 20 21 21 23 24 25 24 24 26 26 25 26 27 25 24 23 22 20 18 16 15 14 13 12 13 13 13 13 13 14 14 11 9 8 8 7
7 10 10 8 7 6 7 8 8 7 7 6 5 10 12 10 8 8 8 6 5 6 7 9 9 9 9 11 12 12 10 9 10 10 9 8 8 10 11 12 12 12 12 12 13 13 13 14 15 16 18 20 22 23 25 25 25 26 26 25 26 27 26 24 23 23 21 19 17 15 14 13 13 13 14 14 14 14 14 13 11 9 9 9 9
4 7 9 9 9 9 11 11 10 7 7 9 8 8 10 7 5 6 7 6 5 5 5 6 6 6 7 9 9 8 8 9 8 7 5 4 4 4 4 6 7 7 7 9 10 10 10 9 10 12 14 17 21 22 23 25 25 25 25 24 24 27 27 25 23 21 20 18 16 15 14 13 13 13 14 13 13 13 13 12 11 11 11 10 10
3 2 4 5 8 12 15 15 13 10 9 9 8 7 6 4 3 3 3 4 4 5 7 7 5 3 6 7 6 6 9 10 8 5 3 2 1 1 1 2 2 2 2 3 5 7 9 9 10 12 13 16 19 20 20 22 23 23 24 24 24 25 25 23 21 19 18 16 13 13 14 13 12 11 12 11 12 12 12 11 11 12 12 11 11
9 8 8 8 9 13 16 16 13 9 9 8 5 2 3 1 2 2 3 4 4 4 5 7 5 2 4 5 4 6 8 7 5 4 3 1 1 2 2 3 3 3 4 5 5 7 10 12 13 14 14 15 16 15 16 19 20 19 22 25 25 24 22 20 16 14 15 14 12 12 11 10 9 8 8 9 10 11 12 12 12 12 12 12 13
9 10 11 12 12 10 11 12 9 6 8 11 8 3 1 2 3 2 3 4 6 5 2 4 5 4 4 4 4 6 6 4 4 2 1 1 1 2 2 3 4 4 6 7 8 9 10 13 15 16 16 15 14 13 14 14 15 16 20 24 23 21 19 17 14 13 13 13 13 12 11 10 10 10 11 12 13 14 15 14 13 12 12 13 14
9 12 13 13 14 11 5 6 4 4 6 8 8 6 6 6 4 3 4 5 8 7 5 4 5 5 5 5 5 6 4 4 3 3 2 2 2 3 4 5 6 6 7 8 9 10 11 12 14 16 17 15 14 14 13 11 13 18 21 20 19 17 15 14 13 11 9 9 9 10 9 10 12 13 13 14 14 15 15 14 13 13 13 14 14
9 12 12 11 10 9 3 4 4 6 6 6 7 8 7 7 6 7 9 9 8 7 6 6 5 5 5 4 5 5 5 5 5 4 3 3 4 5 6 7 7 8 9 10 10 10 11 12 13 14 16 17 16 15 13 13 17 20 20 17 15 14 12 11 11 8 6 6 8 9 9 11 13 13 13 13 13 13 12 11 11 12 13 14 15
8 9 11 11 10 10 6 1 3 4 5 6 7 6 6 6 8 9 11 12 12 9 7 6 5 3 2 1 1 3 4 5 4 4 5 7 7 7 8 8 8 10 11 11 12 13 14 15 14 14 15 17 17 15 15 17 20 21 20 17 14 12 11 9 7 6 5 7 7 7 8 10 11 11 11 11 10 9 9 10 11 12 15 17 18
12 9 12 14 12 11 10 8 4 4 6 8 9 7 5 6 8 10 12 13 14 13 11 10 8 6 4 4 4 4 5 6 8 9 10 10 10 10 10 10 10 11 12 13 14 14 14 14 13 12 13 15 16 16 18 20 20 19 18 17 14 12 12 10 8 7 6 3 2 2 3 5 6 7 7 6 6 8 9 12 14 15 17 18 18
17 16 16 15 13 14 15 13 10 8 9 9 8 8 8 10 11 12 13 14 15 16 15 14 12 10 9 8 8 7 8 10 11 11 11 11 12 12 12 12 12 12 13 15 14 11 10 10 9 10 11 12 15 18 20 21 20 18 17 16 15 13 12 11 9 8 7 5 4 2 1 2 2 3 4 7 9 12 14 15 16 15 16 16 16
21 21 20 17 16 16 15 14 14 13 12 12 12 11 12 12 13 15 14 14 15 15 15 15 15 14 12 12 12 13 13 13 12 12 12 13 13 13 13 14 14 14 15 15 11 9 10 9 9 9 10 13 16 19 21 21 19 17 15 15 14 12 10 9 8 5 3 3 3 2 1 2 3 5 8 11 13 14 15 14 14 14 14 14 15
21 22 22 20 18 17 16 16 17 17 17 17 17 15 15 13 13 13 15 15 16 17 17 16 16 16 15 15 15 15 15 14 13 13 13 14 14 14 15 16 16 15 15 12 9 12 12 12 12 12 13 16 19 21 22 21 18 16 14 13 12 10 8 6 5 3 2 0 1 1 2 5 7 10 13 14 13 12 12 11 12 12 13 13 15
20 21 23 22 21 20 21 21 22 21 21 20 19 18 17 17 18 18 19 19 19 18 17 17 17 17 17 16 15 15 15 15 15 15 16 16 17 18 19 18 16 15 14 11 13 16 15 15 15 15 16 18 20 21 20 19 17 15 13 11 9 8 6 5 4 3 3 3 4 5 6 9 11 12 12 10 9 9 9 9 10 11 11 12 14
20 21 22 23 23 24 25 25 26 26 25 25 24 22 20 20 21 21 20 19 18 17 17 16 16 17 18 18 19 19 19 19 19 20 21 21 21 21 21 20 18 16 15 14 17 18 17 18 18 18 20 21 22 21 18 16 14 12 10 9 7 6 5 5 5 4 4 5 6 7 9 10 10 9 8 7 8 8 9 9 10 10 11 13 15
20 19 20 20 22 23 24 25 26 26 27 27 25 24 23 21 20 19 19 19 19 19 18 18 18 18 17 17 17 17 17 18 19 21 23 24 23 23 23 21 18 14 13 16 19 18 18 19 20 22 24 24 22 19 17 14 12 11 10 9 8 7 6 5 4 4 4 4 6 7 8 7 6 5 5 6 6 7 7 8 10 11 13 16 17
19 20 21 21 21 21 21 21 21 20 20 19 16 15 15 15 14 14 16 17 16 16 17 17 18 18 18 16 15 14 15 16 16 16 16 16 18 21 21 19 17 15 14 17 19 19 19 21 22 24 25 24 22 19 17 16 15 13 12 10 8 6 5 3 2 1 2 4 4 3 3 4 4 5 6 6 6 7 8 10 12 15 17 17 17
20 21 21 20 20 19 18 18 18 18 17 15 14 13 13 13 13 13 14 14 14 14 15 16 17 21 24 24 23 19 17 17 17 14 11 8 6 9 14 16 16 15 15 18 20 21 22 23 25 26 25 22 20 19 18 17 15 13 10 8 7 5 4 2 1 2 2 2 3 4 5 5 5 6 8 9 9 10 12 14 16 17 17 17 18
22 22 22 20 20 19 17 17 18 19 19 18 17 16 16 15 15 16 16 17 18 18 19 19 20 22 24 26 25 23 21 20 17 12 9 7 6 8 10 11 11 12 13 15 19 22 23 25 28 29 27 24 21 18 17 15 13 11 9 8 6 4 3 2 3 3 5 6 7 7 7 8 8 9 11 11 11 12 14 15 16 17 18 19 21
18 19 19 19 20 20 19 18 19 20 21 20 20 20 19 18 19 19 20 21 21 21 21 21 20 20 21 23 24 24 21 19 15 13 12 10 11 11 11 11 11 11 11 13 18 21 23 25 27 27 26 25 23 20 16 14 12 10 9 8 6 6 5 6 7 8 8 8 9 9 8 9 10 10 11 11 12 13 15 16 17 18 19 21 22
17 17 17 19 20 21 21 20 19 19 19 19 19 19 19 19 19 19 20 20 21 20 19 19 18 17 17 18 20 21 18 15 15 16 15 14 13 11 10 10 10 11 12 15 18 20 22 24 25 25 24 22 21 18 16 14 12 10 10 10 11 10 10 9 9 9 8 9 8 8 8 8 8 9 11 12 13 14 15 16 18 19 20 22 23
Wind_Direction
176 177 184 183 184 185 168 158 157 155 156 156 153 155 155 155 154 150 149 149 148 146 144 145 146 143 138 131 127 132 135 131 126 124 121 115 108 106 105 99 100 109 123 131 129 147 148 137 153 164 172 171 186 208 208 204 209 210 201 193 183 176 171 174 185 187 178 180 199 225 241 247 269 284 256 247 251 258 268 268 269 276 268 264 271
170 173 179 179 183 183 168 158 158 155 156 158 157 158 160 161 159 154 153 150 147 148 148 152 154 151 147 143 138 133 131 128 124 126 128 128 127 122 117 117 124 116 107 106 91 120 155 130 114 134 154 156 161 182 196 201 209 207 199 199 194 190 187 177 181 186 181 177 159 133 163 225 275 344 6 262 260 260 267 274 276 290 290 273 278
167 171 175 180 185 182 167 160 162 159 157 160 161 162 165 165 164 160 155 152 154 160 160 159 160 160 156 150 143 135 131 127 119 122 126 126 129 130 129 128 127 147 153 125 94 94 126 119 99 102 117 132 147 156 170 184 196 199 200 200 191 186 192 188 192 195 163 141 126 99 103 60 3 30 43 27 290 269 268 277 284 294 307 291 282
170 171 176 180 182 180 170 163 163 162 159 160 163 166 167 170 171 164 159 161 165 169 168 165 160 155 151 147 141 133 129 125 119 120 124 124 127 128 129 124 112 115 134 132 114 100 104 110 105 107 108 109 124 132 135 136 163 190 197 195 185 179 177 178 197 197 160 143 126 123 148 89 54 337 29 41 48 330 272 298 302 288 297 300 301
168 168 175 181 177 175 172 167 164 164 162 162 165 168 170 175 177 169 167 172 169 164 163 160 153 144 138 136 132 129 129 129 127 126 124 123 124 125 125 121 112 108 110 120 123 107 103 119 115 106 105 108 115 116 109 99 103 128 166 185 186 182 170 154 170 189 176 170 152 131 110 80 197 293 28 48 52 55 351 54 78 109 119 9 353
164 166 171 175 169 169 173 170 164 164 165 164 165 169 173 177 178 174 174 176 172 166 162 157 151 146 142 139 135 134 135 135 136 133 128 126 123 124 124 118 115 111 108 116 121 111 111 127 121 105 107 115 121 116 103 94 93 89 91 129 166 178 169 148 148 176 186 190 174 141 110 112 153 74 69 48 20 61 82 233 225 210 179 167 96
165 169 167 164 163 166 173 174 169 168 168 166 166 169 172 174 175 177 180 180 175 173 171 164 158 155 154 150 144 142 141 140 139 134 131 127 122 121 118 114 113 112 110 113 118 114 107 117 124 115 110 112 117 119 113 107 106 99 93 96 109 140 155 146 144 156 168 185 195 181 153 124 145 125 135 149 2 51 67 102 222 252 249 246 226
164 166 161 160 164 168 175 179 178 176 172 171 172 172 173 173 172 174 182 185 179 179 179 175 169 165 160 153 150 147 142 140 139 134 130 126 121 118 117 116 114 114 115 112 117 117 101 103 116 117 113 114 117 121 121 119 116 112 109 104 103 111 120 122 125 122 113 120 151 172 176 193 225 231 184 153 125 149 291 319 273 271 265 268 261
158 162 159 162 170 175 180 184 186 183 180 181 182 180 177 175 173 170 176 189 187 185 186 182 178 171 161 156 154 149 143 140 138 133 129 126 124 124 122 121 117 114 115 114 120 121 103 99 106 108 108 114 120 122 123 125 123 119 118 116 112 111 114 114 111 107 102 100 111 130 131 127 116 97 149 190 158 141 253 271 317 334 312 304 287
171 168 168 170 173 179 182 186 190 189 188 190 190 187 182 180 179 172 172 189 194 190 189 185 178 170 166 164 156 149 144 141 138 134 133 131 129 129 128 124 121 117 115 114 119 124 112 102 100 99 99 99 105 111 112 114 117 116 118 120 118 114 117 119 111 105 106 100 102 121 129 128 124 92 57 43 136 123 287 294 349 357 345 342 338
152 144 162 172 174 177 179 185 191 192 191 191 191 189 184 183 187 179 172 185 199 197 192 185 175 172 174 169 159 152 150 147 143 140 140 138 134 133 134 132 127 122 120 118 117 119 117 110 105 104 103 98 97 98 98 102 107 111 116 124 126 119 117 120 116 109 106 99 96 103 106 103 96 77 57 52 56 56 32 349 359 359 354 1 358
98 96 116 146 161 174 184 192 195 192 189 187 189 189 182 177 183 181 172 185 204 202 193 186 178 179 181 171 163 159 156 153 149 148 148 145 140 138 139 138 134 130 127 125 122 119 118 117 116 114 113 109 105 106 107 108 112 114 113 116 123 127 127 127 122 116 109 100 95 95 95 95 89 78 65 55 53 45 40 35 14 10 356 346 350
87 85 84 88 108 165 199 208 209 206 197 192 189 182 173 170 178 182 179 189 205 202 193 189 183 184 184 173 169 165 161 159 154 153 154 150 147 146 146 143 140 138 134 129 125 122 121 123 125 123 120 117 112 110 114 115 116 114 111 109 112 121 127 127 124 121 116 106 98 97 95 93 90 84 75 63 66 65 59 51 19 18 2 338 347
82 79 68 56 38 31 238 230 226 223 217 205 189 170 169 172 174 183 186 192 202 199 192 188 184 185 186 177 173 168 165 164 159 158 158 155 153 151 151 149 145 144 139 132 127 125 127 127 130 132 129 125 118 111 113 115 115 114 111 109 108 111 115 116 118 120 123 117 108 105 100 100 99 95 86 66 73 81 69 59 21 15 6 350 350
82 78 65 34 4 10 2 334 229 218 222 215 186 163 167 165 162 178 189 194 197 196 191 186 183 185 187 180 176 173 172 167 163 163 160 158 159 155 154 151 146 146 142 134 130 132 137 135 133 136 135 132 129 126 127 125 123 119 114 110 106 106 109 109 112 117 123 121 109 101 93 99 108 94 75 53 55 70 68 58 37 29 13 354 348
73 77 81 35 5 29 19 18 80 188 208 204 183 177 173 165 173 184 190 191 188 191 194 187 183 185 188 184 178 176 176 170 167 169 165 163 162 158 159 156 148 151 148 140 139 145 151 146 142 140 139 141 139 138 141 142 137 128 121 117 109 106 107 107 109 115 120 116 106 95 78 80 91 74 51 45 49 53 61 50 28 26 30 347 330
71 72 75 64 34 41 43 42 58 100 154 160 173 197 189 182 189 191 187 173 169 181 196 190 185 189 194 189 183 179 177 174 172 172 170 169 167 162 162 160 156 157 155 150 153 162 164 157 155 150 145 146 145 147 153 153 149 137 129 126 122 123 118 107 106 109 115 117 111 103 78 64 70 67 58 56 57 57 61 53 21 13 22 20 350
88 82 67 58 46 33 40 50 50 60 80 110 148 174 179 181 186 185 182 174 166 174 187 187 186 190 198 195 186 181 178 176 176 175 175 172 169 166 164 163 165 164 161 158 163 172 175 168 166 164 159 152 150 160 167 162 161 151 142 143 147 150 140 122 120 113 111 123 121 113 95 58 65 70 61 54 54 55 57 52 20 2 7 17 20
100 88 67 57 52 37 41 50 49 58 63 66 115 144 158 169 178 180 184 179 165 170 181 185 184 189 202 204 192 184 178 177 178 177 180 179 173 169 166 166 169 170 168 167 170 178 181 179 179 177 175 167 164 176 182 176 180 177 167 168 166 161 154 148 154 145 120 123 126 127 115 63 79 92 85 78 51 32 33 26 19 24 20 356 340
102 85 68 59 63 53 56 59 53 56 61 63 75 96 131 153 166 174 176 170 165 171 178 182 180 183 197 200 192 192 188 188 188 182 181 182 178 173 170 170 173 175 176 176 180 187 187 186 189 190 190 184 178 184 191 187 192 197 189 188 184 171 173 175 168 165 150 130 127 137 132 23 79 115 122 126 119 339 348 344 335 337 354 328 313
103 94 83 73 71 66 66 66 61 59 57 59 62 58 88 142 160 169 172 169 169 172 176 178 178 179 179 160 88 6 180 172 189 189 187 184 179 178 176 175 178 180 184 188 192 197 198 194 195 199 203 200 193 194 201 200 201 207 204 204 201 185 194 209 190 176 178 165 161 170 211 286 322 50 123 154 137 45 45 4 350 332 346 354 331
117 118 115 104 81 71 71 68 65 66 61 62 67 65 75 111 143 159 165 165 165 169 173 176 177 177 178 175 164 105 118 102 137 182 185 179 175 178 182 184 187 190 194 199 200 203 206 204 203 207 210 211 210 207 209 209 210 214 214 214 210 197 201 217 209 198 205 210 205 191 191 232 271 330 10 145 55 35 52 26 32 49 23 16 5
124 126 126 112 91 78 74 73 71 71 70 68 71 74 80 93 114 134 148 157 160 162 167 169 165 159 158 169 174 160 161 173 161 163 171 170 168 169 176 185 190 195 199 201 203 205 207 208 210 211 212 216 221 221 221 220 218 221 223 221 220 211 207 213 213 208 215 222 218 208 202 221 254 288 336 37 6 356 339 326 348 8 357 351 349
106 112 113 103 99 93 85 83 80 77 79 78 76 80 85 92 101 114 129 146 153 151 154 155 155 152 145 157 173 168 167 177 172 168 179 184 182 178 179 184 187 190 195 199 204 205 206 209 210 210 213 217 221 223 227 228 226 226 228 226 226 222 216 217 218 215 217 223 222 218 212 223 251 266 277 315 307 299 293 287 298 308 313 319 321
114 120 126 118 112 111 106 101 96 89 88 87 84 84 88 92 99 107 120 137 147 146 149 153 155 154 151 159 173 180 181 183 195 223 228 214 205 200 198 199 198 194 193 194 196 198 201 204 206 207 211 216 221 223 224 228 231 230 229 229 229 228 224 222 223 219 218 221 217 210 206 215 237 247 244 257 262 259 271 281 291 298 298 302 309
134 138 139 136 129 128 127 119 109 102 98 95 93 91 91 92 97 106 117 131 147 156 161 166 168 165 164 170 176 181 186 191 201 215 222 218 214 211 210 213 215 214 212 209 205 201 198 196 199 207 212 215 219 224 226 228 232 231 228 227 229 230 228 225 225 223 221 218 208 200 206 213 221 229 230 237 245 252 265 278 287 294 296 298 303
107 105 96 90 103 123 140 142 136 124 110 101 96 96 97 98 101 107 116 123 135 152 160 164 172 177 182 192 197 196 199 202 203 205 210 216 220 220 220 223 224 226 227 229 231 230 224 215 209 214 225 229 224 224 228 229 229 229 227 224 225 227 227 225 224 223 220 216 211 209 216 220 223 230 233 233 241 250 256 268 283 291 294 296 301
90 87 82 74 70 72 100 137 150 147 135 123 113 104 103 104 103 107 117 124 130 137 147 155 163 174 182 188 197 203 204 205 206 208 213 219 224 226 228 231 233 236 240 245 248 249 246 241 233 230 238 239 229 223 228 229 228 228 226 223 222 222 222 221 219 218 217 217 221 227 227 225 229 238 242 244 248 249 250 270 291 293 290 291 297
140 117 102 90 72 60 59 79 112 125 126 125 125 125 121 116 113 116 122 129 135 137 143 153 161 171 178 179 181 185 189 196 203 209 215 220 226 229 233 238 243 246 250 255 257 255 251 249 246 243 240 235 229 229 234 235 231 228 225 224 222 220 219 217 213 212 214 217 222 226 225 227 235 244 249 252 253 253 264 288 300 297 290 289 291
162 146 131 119 102 86 71 67 82 102 113 118 123 126 126 125 125 128 129 136 146 151 155 161 166 171 176 177 173 173 178 187 193 195 201 211 220 224 231 239 243 244 248 254 257 256 255 255 257 256 250 242 238 238 242 243 238 231 225 223 223 221 218 213 208 207 210 213 217 219 222 230 240 248 253 255 258 264 277 292 299 299 295 293 294
167 152 146 143 137 114 89 76 71 78 100 118 129 132 133 135 139 145 145 135 138 147 155 162 164 165 172 178 176 174 177 184 189 190 195 203 208 213 221 229 232 236 242 247 251 253 255 258 262 262 259 254 249 246 246 246 242 233 227 225 223 220 215 210 207 207 208 211 214 219 226 235 243 249 252 256 263 272 283 292 296 297 292 287 289
182 158 149 146 147 136 117 98 79 73 79 79 110 139 142 139 137 147 152 145 140 142 143 150 155 160 167 168 166 172 178 180 181 181 184 194 204 210 218 226 232 237 240 241 243 246 250 254 258 260 261 258 255 253 251 251 247 236 228 226 223 217 211 207 207 208 211 214 218 222 227 233 239 244 250 255 263 271 280 288 291 289 281 275 278
228 179 154 147 147 132 114 97 82 79 69 52 61 107 128 127 108 115 136 151 169 177 166 159 168 174 160 147 151 167 170 161 157 156 153 158 172 188 210 232 238 238 237 238 239 244 251 259 263 265 266 264 259 257 257 259 255 240 228 225 222 214 209 206 205 206 210 213 217 222 226 231 238 244 249 252 258 267 276 281 282 279 272 269 272
36 78 90 108 117 110 99 89 84 83 71 59 61 77 97 115 100 92 143 177 197 206 195 180 179 167 146 146 157 155 142 135 132 129 133 141 126 13 359 328 294 261 246 244 245 251 255 263 273 274 270 264 260 261 262 261 256 243 230 224 218 210 204 200 198 200 203 205 210 218 223 226 232 241 248 252 256 264 270 271 269 266 264 266 271
45 45 36 39 66 87 89 85 84 80 53 29 20 76 119 177 240 218 201 227 266 256 194 179 187 181 152 165 172 139 127 123 118 116 125 141 337 329 334 339 330 310 289 279 276 271 258 250 252 259 261 260 261 266 266 260 254 241 224 216 209 200 194 191 190 196 202 203 206 209 211 215 226 241 253 258 261 264 265 265 263 260 262 268 273
46 42 32 26 30 50 76 81 79 68 39 24 22 61 101 301 273 213 190 238 270 282 232 181 193 188 182 201 182 143 129 125 126 136 169 188 282 299 288 290 296 296 290 279 271 271 270 259 248 244 247 253 260 265 264 256 244 222 206 201 198 192 189 187 191 200 204 204 210 217 224 238 253 262 266 266 268 269 267 267 266 265 268 272 277
64 52 39 28 11 2 39 89 73 29 33 27 15 8 353 340 328 322 311 272 257 266 276 256 216 197 215 225 182 152 144 152 169 205 215 225 262 266 263 268 274 282 292 287 271 263 266 268 257 243 236 239 249 255 249 232 213 201 193 188 186 184 180 178 181 189 195 202 220 236 250 261 262 260 259 259 260 260 259 259 261 265 270 274 278
59 60 44 23 349 317 288 120 63 21 25 17 357 353 349 340 326 316 313 304 289 279 274 268 247 216 222 219 182 176 189 190 196 210 218 248 266 263 265 270 271 278 287 291 287 276 269 268 264 251 239 234 236 237 225 205 197 195 189 179 174 174 173 177 186 195 209 225 235 244 251 254 252 248 249 250 251 252 254 259 267 274 280 283 285
14 47 30 1 329 300 288 17 41 7 352 326 310 318 331 327 318 311 308 307 307 304 301 300 296 280 259 241 203 211 204 193 202 224 242 257 260 257 258 261 266 274 279 284 288 282 271 265 265 259 245 231 225 217 204 195 193 192 189 182 175 169 162 167 184 195 205 221 228 232 241 245 243 243 246 249 253 260 269 279 289 296 301 301 300
342 3 1 349 341 337 339 345 340 328 322 299 272 264 283 299 299 297 294 294 297 301 304 304 302 298 294 289 288 279 259 247 249 253 256 255 250 250 253 258 268 274 275 284 289 280 263 254 253 250 236 222 213 201 189 189 191 189 187 184 177 166 154 146 145 143 137 141 181 207 228 237 236 239 252 267 283 294 300 305 309 312 313 312 310
333 335 337 337 335 332 329 326 319 311 309 297 274 262 269 272 268 267 269 273 278 284 288 287 285 285 283 274 268 266 268 264 255 249 248 246 245 250 254 259 267 270 275 286 287 268 242 230 226 224 215 206 204 194 184 185 189 187 183 179 171 164 160 153 144 133 111 79 58 85 153 211 237 261 295 313 317 318 318 319 319 321 321 322 322
328 327 327 325 321 315 309 308 309 306 302 302 297 288 282 271 258 253 257 260 262 265 268 270 272 271 269 266 263 262 265 268 261 251 245 244 248 252 253 259 266 270 279 286 270 227 207 196 190 193 192 189 190 188 181 179 181 182 181 179 174 171 171 168 160 151 120 58 41 79 145 240 279 305 320 325 326 326 328 332 334 334 334 333 328
315 315 315 316 315 311 305 303 304 299 296 296 292 286 285 280 269 269 275 275 269 265 264 265 268 269 268 266 263 261 263 266 267 262 253 250 252 254 256 261 262 264 274 274 227 193 183 172 166 170 177 179 178 177 175 175 176 177 178 179 178 179 185 188 186 187 183 287 324 303 283 290 300 313 321 324 327 331 337 343 342 340 338 334 326
299 299 301 304 304 302 300 298 296 292 290 291 287 280 275 272 270 273 274 271 268 264 260 261 265 268 269 269 268 269 271 271 273 272 267 262 260 258 257 255 250 256 265 242 192 177 169 159 156 159 164 168 168 168 170 172 173 174 175 178 181 184 191 194 189 187 193 216 253 276 289 300 309 317 320 321 323 330 336 336 334 332 332 331 329
292 292 293 294 293 291 290 288 288 287 285 285 284 280 272 268 269 268 264 263 264 261 257 258 262 265 267 268 269 270 270 269 268 266 265 264 260 257 254 246 239 246 249 216 181 169 163 157 153 153 155 159 161 161 160 162 165 168 169 169 170 167 159 148 151 166 189 216 244 271 289 302 312 319 320 319 319 321 320 321 326 332 333 333 332
305 305 306 306 303 298 292 285 281 281 278 275 274 272 266 265 267 265 263 266 266 262 259 257 258 262 266 266 266 266 267 268 266 262 260 258 256 255 252 241 228 226 218 192 173 164 159 155 152 152 154 155 155 155 155 155 154 152 147 142 137 135 131 129 147 171 197 240 272 290 302 315 333 346 347 346 345 342 334 327 329 334 332 330 327
308 311 315 317 315 309 304 298 292 288 286 284 284 282 279 279 281 280 279 277 271 266 266 263 259 260 260 259 261 266 270 272 271 267 264 263 261 257 246 224 205 195 181 170 169 166 158 151 150 151 152 152 153 156 156 152 146 142 138 136 134 136 142 153 185 240 292 308 314 333 7 25 29 23 13 8 3 354 344 334 331 331 328 324 322
304 307 309 310 309 307 309 312 312 312 312 309 307 307 305 304 305 305 304 299 294 291 290 288 282 274 265 257 254 256 261 265 266 266 267 264 253 239 221 200 193 195 183 173 174 173 166 160 155 151 149 148 152 156 154 149 149 149 148 153 155 155 162 175 267 332 3 47 74 79 65 44 22 3 353 349 344 340 336 333 330 328 324 320 320
294 296 297 299 300 299 300 302 305 308 309 306 302 300 298 298 298 299 301 302 301 300 296 294 291 283 272 261 252 248 251 255 250 239 232 215 179 180 191 189 195 206 203 195 189 180 172 167 160 156 154 151 149 150 150 149 151 153 157 163 158 143 136 117 81 86 104 95 79 69 55 32 12 358 352 349 346 341 337 332 330 328 324 321 319
298 299 300 302 302 300 298 297 298 300 300 298 296 293 290 288 287 287 289 291 291 290 290 290 289 285 277 264 248 238 240 241 222 192 178 171 161 167 181 187 191 194 196 203 199 184 171 165 160 158 159 156 148 145 146 146 148 149 152 151 135 118 115 109 98 99 99 81 63 58 44 23 11 5 359 355 350 344 338 335 332 329 325 322 319
313 309 304 301 298 297 298 299 299 299 297 295 295 293 288 285 282 279 280 281 278 275 278 284 288 288 283 267 247 235 229 215 190 174 167 158 150 153 164 176 189 188 182 188 191 180 170 168 164 157 152 147 143 142 142 143 145 145 138 127 114 106 106 107 102 96 85 70 60 50 33 16 8 2 354 350 347 342 338 335 331 327 325 324 322